• Currently

    Reported at Marathon, Marathon Airport, FL
    3:53 PM EST WED MAY 24 2017
  • 88°F31°C
  • Partly Cloudy
    Partly Cloudy
  • Feels Like:102°F39°CDew Point:79°F26°CHumidity:75% Winds:S 7 mph 11 kph
    Pressure:29.83 in1010 hPaVisibility:8.00 miles12872.00 meters
Time Weather Temp Dew Point
Humidity Winds Visibility Pressure Precipitation
1 hr 24 hr
Wednesday, May 24
16:53 16:53 Partly Cloudy Partly Cloudy 88°F31°C 79°F26°C 75% S 7 mphS 11 kph 8.0 miles12.9 km 29.83 in1010 hPa 0.00 in0.00 mm --
15:53 15:53 Sunny Sunny 88°F31°C 79°F26°C 75% SSE 10 mphSSE 17 kph 8.0 miles12.9 km 29.83 in1010 hPa 0.00 in0.00 mm --
14:53 14:53 Sunny Sunny 89°F32°C 79°F26°C 72% S 12 mphS 19 kph 9.0 miles14.5 km 29.83 in1010 hPa 0.00 in0.00 mm --
13:53 13:53 Sunny Sunny 89°F32°C 79°F26°C 72% SSE 12 mphSSE 19 kph 9.0 miles14.5 km 29.85 in1011 hPa 0.00 in0.00 mm --
12:53 12:53 Sunny Sunny 89°F32°C 79°F26°C 72% S 14 mphS 22 kph 10.0 miles16.1 km 29.88 in1012 hPa 0.00 in0.00 mm --
11:53 11:53 Sunny Sunny 89°F32°C 79°F26°C 72% S 12 mphS 19 kph 9.0 miles14.5 km 29.88 in1012 hPa 0.00 in0.00 mm --
10:53 10:53 Partly Cloudy Partly Cloudy 88°F31°C 78°F26°C 73% S 9 mphS 15 kph 10.0 miles16.1 km 29.88 in1012 hPa 0.00 in0.00 mm --
09:53 09:53 Mostly Sunny Mostly Sunny 86°F30°C 77°F25°C 75% S 10 mphS 17 kph 10.0 miles16.1 km 29.88 in1012 hPa 0.00 in0.00 mm --
08:53 08:53 Sunny Sunny 85°F29°C 77°F25°C 77% S 10 mphS 17 kph 10.0 miles16.1 km 29.85 in1011 hPa 0.00 in0.00 mm --
07:53 07:53 Sunny Sunny 83°F28°C 77°F25°C 82% S 10 mphS 17 kph 10.0 miles16.1 km 29.85 in1011 hPa 0.00 in0.00 mm --
06:53 06:53 Sunny Sunny 82°F28°C 77°F25°C 85% SSW 10 mphSSW 17 kph 10.0 miles16.1 km 29.88 in1012 hPa 0.00 in0.00 mm --
05:53 05:53 Mostly Clear Mostly Clear 81°F27°C 77°F25°C 88% SSW 8 mphSSW 13 kph 10.0 miles16.1 km 29.88 in1012 hPa 0.00 in0.00 mm --
04:53 04:53 Mostly Clear Mostly Clear 82°F28°C 77°F25°C 85% SSW 8 mphSSW 13 kph 10.0 miles16.1 km 29.88 in1012 hPa 0.00 in0.00 mm --
03:53 03:53 Mostly Clear Mostly Clear 82°F28°C 78°F26°C 88% SSW 9 mphSSW 15 kph 10.0 miles16.1 km 29.88 in1012 hPa 0.00 in0.00 mm --
03:22 03:22 Partly Cloudy Partly Cloudy 83°F28°C 79°F26°C 88% S 7 mphS 11 kph 10.0 miles16.1 km 29.88 in1012 hPa 0.00 in0.00 mm --
03:01 03:01 Mostly Cloudy Mostly Cloudy 83°F28°C 79°F26°C 88% S 8 mphS 13 kph 10.0 miles16.1 km 29.88 in1012 hPa 0.00 in0.00 mm --
02:53 02:53 Mostly Cloudy Mostly Cloudy 83°F28°C 79°F26°C 88% N 7 mphN 11 kph 10.0 miles16.1 km 29.88 in1012 hPa 0.00 in0.00 mm --
01:53 01:53 Mostly Cloudy Mostly Cloudy 83°F28°C 79°F26°C 88% SSE 10 mphSSE 17 kph 10.0 miles16.1 km 29.91 in1013 hPa 0.00 in0.03 mm --
00:53 00:53 Mostly Cloudy Mostly Cloudy 83°F28°C 78°F26°C 85% SSE 9 mphSSE 15 kph 10.0 miles16.1 km 29.94 in1014 hPa 0.00 in0.00 mm --